Theta_e
309 308 308 307 306 305 305 306 307 307 307 307 307 308 309 308 308 310 310 310 310 309
308 307 306 306 306 305 305 307 307 306 306 307 309 309 309 309 310 310 310 307 308 308
306 306 305 304 304 304 304 305 305 306 306 307 307 305 305 306 307 308 308 309 307 307
305 305 304 304 303 304 304 305 305 305 306 306 305 305 305 306 308 308 308 308 307 308
304 303 303 303 304 305 305 305 305 305 305 305 305 305 305 305 307 307 307 308 308 307
303 303 302 304 304 305 305 305 305 305 305 305 306 307 306 306 307 309 309 309 309 309
303 303 303 304 305 305 305 305 305 306 306 307 308 307 306 307 308 308 309 311 310 310
304 304 305 305 305 305 305 305 305 305 307 308 308 305 307 307 308 307 309 310 311 311
305 305 305 305 305 305 305 304 304 305 306 308 305 303 305 308 306 306 306 307 308 308
305 305 305 305 304 304 304 304 304 304 306 306 304 301 302 306 306 305 305 305 306 305
305 304 304 304 304 304 304 304 304 305 306 305 305 300 301 304 305 304 304 304 305 304
304 304 304 303 303 304 304 304 305 306 307 307 305 299 300 303 305 303 302 303 304 303
305 304 303 303 304 303 304 305 306 307 309 306 305 298 299 302 305 302 302 302 302 301
304 303 303 302 303 303 303 305 304 305 308 308 302 302 297 299 303 302 301 300 300 300
Wind_Speed
6 4 4 5 4 4 4 4 5 6 6 7 6 6 5 4 4 5 5 7 5 4
6 6 5 6 4 3 4 5 6 6 6 6 6 7 7 5 6 5 4 4 5 5
5 5 5 5 6 6 5 6 7 6 6 6 6 6 6 6 6 5 4 3 4 5
6 5 5 4 5 5 5 6 6 6 6 6 7 7 7 7 7 6 7 5 4 5
5 6 6 6 6 6 6 5 6 6 6 7 6 6 8 9 9 9 9 7 5 4
6 6 7 7 7 7 6 6 6 6 7 8 8 9 10 8 9 9 8 8 6 5
6 6 6 6 6 6 6 6 7 7 7 8 9 8 8 8 8 8 8 8 8 6
6 6 6 6 6 6 6 6 6 7 7 7 7 7 8 7 8 8 8 10 11 7
5 5 5 6 6 6 7 7 7 7 6 9 7 13 13 11 8 8 9 8 10 11
6 6 6 6 5 5 6 7 8 8 7 9 9 13 12 13 7 8 9 9 8 9
6 6 6 6 6 5 4 5 5 7 6 8 8 13 11 11 8 8 10 10 9 9
6 6 6 7 7 4 4 4 5 4 6 7 8 12 10 8 6 8 10 9 9 8
5 5 5 5 5 3 3 4 4 6 7 10 8 13 11 8 4 8 7 8 8 13
4 4 4 4 4 4 4 4 5 6 6 8 10 10 12 11 7 5 7 7 7 6
Wind_Direction
30 26 17 11 1 356 347 333 330 337 342 335 329 316 306 294 292 286 279 279 253 256
16 15 3 352 348 334 326 331 333 332 326 321 323 335 333 317 307 303 291 281 285 274
10 7 357 353 351 343 332 340 337 330 330 329 336 335 330 315 305 299 297 287 269 265
352 348 347 347 339 338 332 337 334 337 334 337 333 330 329 318 295 298 289 274 248 269
348 352 355 345 340 343 340 339 347 352 345 332 323 326 326 312 307 310 306 307 260 243
353 350 343 344 344 345 343 351 350 349 349 339 340 343 343 325 323 323 321 325 301 208
348 341 338 340 349 351 345 357 350 350 342 351 356 349 336 331 341 344 355 356 1 87
333 338 346 352 349 346 352 350 353 358 1 357 10 354 347 354 0 10 16 31 33 58
340 342 348 348 350 357 358 3 3 3 354 13 18 354 7 19 17 27 33 36 46 49
344 349 354 347 357 2 6 3 7 5 9 24 19 2 12 26 28 37 38 38 44 51
350 354 353 353 360 355 354 354 344 14 8 29 19 3 18 28 38 44 44 41 46 59
354 357 355 356 353 352 355 350 347 356 11 28 27 3 30 39 43 52 51 48 49 60
348 359 356 341 353 346 357 353 352 12 20 28 28 12 27 44 46 61 56 51 52 48
2 0 352 336 0 357 6 4 9 15 20 39 29 28 35 38 58 60 73 64 58 55